Weather History for KCGZ - May, 2013

Change the Weather History Date:

Tuesday, May 7, 2013

  Actual Average Record
Temperature  
Mean Temperature 73 °F -  
Max Temperature 82 °F 88 °F 100 °F (1997)
Min Temperature 64 °F 56 °F 51 °F (1998)
Cooling Degree Days 8    
Growing Degree Days 23 (Base 50)    
Moisture  
Dew Point 37 °F    
Average Humidity 25    
Maximum Humidity 37    
Minimum Humidity 16    
Precipitation  
Precipitation 0.00 in - - ()
Sea Level Pressure  
Sea Level Pressure 29.92 in    
Wind  
Wind Speed 11 mph (SW)    
Max Wind Speed 23 mph    
Max Gust Speed 28 mph    
Visibility 10 miles    
Events      
Averages and records for this station are not official NWS values.
T = Trace of Precipitation, MM = Missing Value Source: NWS Daily Summary

Daily Weather History Graph

Daily Weather History Graph

Search for Another Location

Airport or City:

Trip Planner

Search our weather history database for the weather conditions in past years. The results will help you decide how hot, cold, wet, or windy it might be!

Date:

Astronomy

May. 07, 2013 Rise Set
Actual Time 5:33 AM MST 7:13 PM MST
Civil Twilight 5:07 AM MST 7:40 PM MST
Nautical Twilight 4:34 AM MST 8:12 PM MST
Astronomical Twilight 4:01 AM MST 8:46 PM MST
Moon 4:03 AM MST (5/7) 5:22 PM MST (5/7)
Length of Visible Light 14h 33m
Length of Day
13h 40m
Waning Crescent, 5% of the Moon is Illuminated
May 7
Waning Crescent
May 9
New
May 17
First Quarter
May 24
Full
May 31
Last Quarter

Hourly Weather History & Observations

Time (MST) Temp. Dew Point Humidity Pressure Visibility Wind Dir Wind Speed Gust Speed Precip Events Conditions
12:15 AM - - N/A% - - North - - N/A   Unknown
12:35 AM - - N/A% - - North - - N/A   Unknown
12:55 AM - - N/A% - - North - - N/A   Unknown
1:35 AM - - N/A% - - North - - N/A   Unknown
1:55 AM - - N/A% - - North - - N/A   Unknown
2:15 AM - - N/A% - - North - - N/A   Unknown
2:35 AM - - N/A% - - North - - N/A   Unknown
2:55 AM - - N/A% - - North - - N/A   Unknown
3:15 AM - - N/A% - - North - - N/A   Unknown
3:35 AM - - N/A% - - North - - N/A   Unknown
3:55 AM - - N/A% - - North - - N/A   Unknown
4:15 AM - - N/A% - - North - - N/A   Unknown
4:35 AM - - N/A% - - North - - N/A   Unknown
4:55 AM - - N/A% - - North - - N/A   Unknown
5:15 AM - - N/A% - - North - - N/A   Unknown
5:35 AM - - N/A% - - North - - N/A   Unknown
5:55 AM - - N/A% - - North - - N/A   Unknown
6:15 AM - - N/A% - - North - - N/A   Unknown
6:35 AM - - N/A% - - North - - N/A   Unknown
6:55 AM - - N/A% - - North - - N/A   Unknown
7:15 AM - - N/A% - - North - - N/A   Unknown
7:35 AM - - N/A% - - North - - N/A   Unknown
7:55 AM - - N/A% - - North - - N/A   Unknown
8:15 AM - - N/A% - - North - - N/A   Unknown
8:35 AM - - N/A% - - North - - N/A   Unknown
9:55 AM 73.4 °F 42.8 °F 33% 30.00 in 10.0 mi East 3.5 mph - N/A   Unknown
10:15 AM 75.2 °F 39.2 °F 27% 30.00 in 10.0 mi SSE 12.7 mph 20.7 mph N/A   Clear
10:35 AM 75.2 °F 37.4 °F 25% 30.00 in 10.0 mi SSE 8.1 mph 23.0 mph N/A   Clear
10:55 AM 77.0 °F 35.6 °F 22% 29.99 in 10.0 mi South 16.1 mph 25.3 mph N/A   Clear
11:15 AM 77.0 °F 35.6 °F 22% 29.99 in 10.0 mi South 12.7 mph 23.0 mph N/A   Clear
11:35 AM 77.0 °F 37.4 °F 24% 29.98 in 10.0 mi SSW 12.7 mph 21.9 mph N/A   Clear
11:55 AM 77.0 °F 37.4 °F 24% 29.97 in 10.0 mi South 8.1 mph 18.4 mph N/A   Clear
12:15 PM 78.8 °F 37.4 °F 23% 29.96 in 10.0 mi South 12.7 mph 17.3 mph N/A   Clear
12:35 PM 78.8 °F 37.4 °F 23% 29.95 in 10.0 mi SW 13.8 mph 20.7 mph N/A   Clear
12:55 PM 78.8 °F 35.6 °F 21% 29.94 in 10.0 mi South 10.4 mph 20.7 mph N/A   Clear
1:15 PM 80.6 °F 37.4 °F 21% 29.93 in 10.0 mi WSW 11.5 mph 18.4 mph N/A   Clear
1:35 PM 80.6 °F 35.6 °F 20% 29.93 in 10.0 mi South 12.7 mph 25.3 mph N/A   Clear
1:55 PM 82.4 °F 32.0 °F 16% 29.92 in 10.0 mi SSW 18.4 mph 25.3 mph N/A   Clear
2:15 PM 82.4 °F 33.8 °F 17% 29.91 in 10.0 mi SW 17.3 mph 21.9 mph N/A   Clear
2:35 PM 82.4 °F 33.8 °F 17% 29.91 in 10.0 mi SSW 18.4 mph 25.3 mph N/A   Clear
2:55 PM 82.4 °F 33.8 °F 17% 29.90 in 10.0 mi SSW 12.7 mph 26.5 mph N/A   Clear
3:15 PM 82.4 °F 35.6 °F 19% 29.89 in 10.0 mi SW 19.6 mph 24.2 mph N/A   Clear
3:35 PM 82.4 °F 33.8 °F 17% 29.88 in 10.0 mi SW 20.7 mph 27.6 mph N/A   Clear
3:55 PM 82.4 °F 33.8 °F 17% 29.87 in 10.0 mi SSW 23.0 mph 27.6 mph N/A   Clear
4:15 PM 82.4 °F 33.8 °F 17% 29.87 in 10.0 mi SSW 15.0 mph 25.3 mph N/A   Clear
4:35 PM 82.4 °F 32.0 °F 16% 29.87 in 10.0 mi WSW 15.0 mph 25.3 mph N/A   Clear
4:55 PM 82.4 °F 33.8 °F 17% 29.86 in 10.0 mi SW 15.0 mph 25.3 mph N/A   Clear
5:15 PM 82.4 °F 33.8 °F 17% 29.86 in 10.0 mi SW 17.3 mph 23.0 mph N/A   Clear
5:35 PM 80.6 °F 33.8 °F 18% 29.86 in 10.0 mi WSW 17.3 mph 21.9 mph N/A   Clear
5:55 PM 80.6 °F 37.4 °F 21% 29.86 in 10.0 mi West 13.8 mph 20.7 mph N/A   Clear
6:15 PM 80.6 °F 37.4 °F 21% 29.86 in 10.0 mi West 17.3 mph 20.7 mph N/A   Partly Cloudy
6:35 PM 78.8 °F 39.2 °F 24% 29.86 in 10.0 mi West 15.0 mph 23.0 mph N/A   Partly Cloudy
6:55 PM 77.0 °F 39.2 °F 26% 29.87 in 10.0 mi West 12.7 mph 18.4 mph N/A   Partly Cloudy
7:15 PM 75.2 °F 39.2 °F 27% 29.87 in 10.0 mi WNW 12.7 mph - N/A   Partly Cloudy
7:35 PM 75.2 °F 39.2 °F 27% 29.88 in 10.0 mi WNW 10.4 mph - N/A   Mostly Cloudy
7:55 PM 75.2 °F 39.2 °F 27% 29.89 in 10.0 mi WNW 9.2 mph 16.1 mph N/A   Mostly Cloudy
8:15 PM 73.4 °F 39.2 °F 29% 29.89 in 10.0 mi West 13.8 mph 17.3 mph N/A   Mostly Cloudy
8:35 PM 73.4 °F 39.2 °F 29% 29.91 in 10.0 mi WSW 10.4 mph - N/A   Mostly Cloudy
8:55 PM 71.6 °F 41.0 °F 33% 29.92 in 10.0 mi WSW 9.2 mph - N/A   Overcast
9:15 PM 71.6 °F 41.0 °F 33% 29.93 in 10.0 mi West 6.9 mph - N/A   Mostly Cloudy
9:35 PM 71.6 °F 41.0 °F 33% 29.94 in 10.0 mi West 6.9 mph - N/A   Clear
9:55 PM 69.8 °F 39.2 °F 33% 29.95 in 10.0 mi West 6.9 mph - N/A   Clear
10:15 PM 69.8 °F 39.2 °F 33% 29.95 in 10.0 mi West 6.9 mph - N/A   Clear
10:35 PM 68.0 °F 39.2 °F 35% 29.96 in 10.0 mi Calm Calm - N/A   Clear
10:55 PM 66.2 °F 39.2 °F 37% 29.96 in 10.0 mi West 5.8 mph - N/A   Partly Cloudy
11:15 PM 66.2 °F 37.4 °F 35% 29.96 in 10.0 mi West 5.8 mph - N/A   Clear
11:35 PM 64.4 °F 37.4 °F 37% 29.97 in 10.0 mi Calm Calm - N/A   Clear
11:55 PM 64.4 °F 37.4 °F 37% 29.98 in 10.0 mi South 5.8 mph - N/A   Scattered Clouds